| time (UTC) | temp C | wind direction | speed KPH | gust KPH | rain 1hr cm | rain 24hr cm | rain mn cm | humidity % | barometer mb |
| 20260506193028 | 13 | 162 | 12.9 | 25.7 | 0.00 | 0.10 | 0.00 | 38 | 1016.5 |
| 20260506191512 | 13 | 211 | 8.0 | 24.1 | 0.00 | 0.10 | 0.00 | 39 | 1016.7 |
| 20260506190016 | 13 | 200 | 11.3 | 25.7 | 0.00 | 0.10 | 0.00 | 37 | 1016.7 |
| 20260506184538 | 13 | 175 | 11.3 | 20.9 | 0.00 | 0.10 | 0.00 | 38 | 1016.9 |
| 20260506183033 | 13 | 220 | 11.3 | 27.4 | 0.00 | 0.10 | 0.00 | 39 | 1017.0 |
| 20260506181526 | 12 | 153 | 11.3 | 29.0 | 0.00 | 0.10 | 0.00 | 41 | 1017.1 |
| 20260506180017 | 12 | 182 | 12.9 | 29.0 | 0.00 | 0.10 | 0.00 | 44 | 1017.1 |
| 20260506174524 | 12 | 73 | 8.0 | 19.3 | 0.00 | 0.10 | 0.00 | 42 | 1017.1 |
| 20260506173026 | 11 | 167 | 8.0 | 19.3 | 0.00 | 0.10 | 0.00 | 44 | 1017.1 |
| 20260506171525 | 12 | 219 | 6.4 | 14.5 | 0.00 | 0.10 | 0.00 | 45 | 1016.9 |
| 20260506170024 | 11 | 268 | 4.8 | 16.1 | 0.00 | 0.10 | 0.00 | 53 | 1016.9 |
| 20260506164518 | 10 | 197 | 11.3 | 27.4 | 0.00 | 0.10 | 0.00 | 53 | 1017.0 |
| 20260506163025 | 9 | 181 | 9.7 | 25.7 | 0.00 | 0.10 | 0.00 | 53 | 1016.8 |
| 20260506161525 | 8 | 229 | 14.5 | 25.7 | 0.00 | 0.10 | 0.00 | 52 | 1016.8 |
| 20260506160021 | 8 | 194 | 8.0 | 17.7 | 0.00 | 0.10 | 0.00 | 57 | 1016.8 |
| 20260506154503 | 8 | 200 | 11.3 | 20.9 | 0.00 | 0.10 | 0.00 | 58 | 1016.8 |
| 20260506153003 | 7 | 213 | 8.0 | 27.4 | 0.00 | 0.10 | 0.00 | 61 | 1016.7 |
| 20260506151504 | 7 | 200 | 8.0 | 20.9 | 0.00 | 0.10 | 0.00 | 60 | 1016.8 |
| 20260506150020 | 7 | 217 | 12.9 | 24.1 | 0.00 | 0.10 | 0.00 | 61 | 1016.7 |
| 20260506144517 | 7 | 221 | 6.4 | 24.1 | 0.00 | 0.10 | 0.00 | 62 | 1016.7 |
| 20260506143004 | 6 | 220 | 11.3 | 17.7 | 0.00 | 0.10 | 0.00 | 62 | 1016.7 |
| 20260506141504 | 6 | 212 | 9.7 | 29.0 | 0.00 | 0.10 | 0.00 | 65 | 1016.8 |
| 20260506140006 | 6 | 200 | 4.8 | 17.7 | 0.00 | 0.10 | 0.00 | 67 | 1016.7 |
| 20260506134531 | 5 | 193 | 8.0 | 22.5 | 0.00 | 0.10 | 0.00 | 69 | 1016.4 |
| 20260506133016 | 5 | 186 | 14.5 | 25.7 | 0.00 | 0.10 | 0.00 | 71 | 1016.4 |
| 20260506130004 | 4 | 202 | 16.1 | 33.8 | 0.00 | 0.10 | 0.00 | 70 | 1016.3 |
| 20260506124507 | 3 | 307 | 4.8 | 22.5 | 0.00 | 0.10 | 0.00 | 76 | 1016.7 |
| 20260506123012 | 2 | 298 | 3.2 | 11.3 | 0.00 | 0.10 | 0.00 | 80 | 1016.1 |
| 20260506121518 | 2 | 187 | 11.3 | 19.3 | 0.00 | 0.10 | 0.00 | 80 | 1015.3 |
| 20260506120024 | 2 | 196 | 8.0 | 16.1 | 0.00 | 0.10 | 0.00 | 80 | 1015.3 |
| 20260506114511 | 2 | 201 | 9.7 | 14.5 | 0.00 | 0.10 | 0.00 | 80 | 1015.4 |
| 20260506113023 | 2 | 163 | 9.7 | 17.7 | 0.00 | 0.10 | 0.00 | 80 | 1015.5 |
| 20260506111516 | 2 | 169 | 9.7 | 19.3 | 0.00 | 0.10 | 0.00 | 80 | 1015.6 |
| 20260506110022 | 2 | 194 | 9.7 | 17.7 | 0.00 | 0.10 | 0.00 | 79 | 1015.4 |
| 20260506104525 | 3 | 169 | 6.4 | 14.5 | 0.00 | 0.10 | 0.00 | 79 | 1015.4 |
| 20260506103012 | 3 | 205 | 8.0 | 17.7 | 0.00 | 0.10 | 0.00 | 80 | 1015.3 |
| 20260506101513 | 3 | 179 | 4.8 | 12.9 | 0.00 | 0.10 | 0.00 | 80 | 1015.3 |
| 20260506100018 | 3 | 207 | 3.2 | 8.0 | 0.00 | 0.10 | 0.00 | 80 | 1015.3 |
| 20260506094522 | 3 | 177 | 1.6 | 8.0 | 0.00 | 0.10 | 0.00 | 79 | 1015.3 |
| 20260506093024 | 3 | 200 | 4.8 | 9.7 | 0.00 | 0.10 | 0.00 | 80 | 1015.2 |
| 20260506091512 | 4 | 229 | 1.6 | 11.3 | 0.00 | 0.10 | 0.00 | 76 | 1015.3 |
| 20260506090020 | 5 | 216 | 8.0 | 14.5 | 0.00 | 0.10 | 0.00 | 72 | 1015.2 |
| 20260506084521 | 3 | 255 | 4.8 | 11.3 | 0.00 | 0.10 | 0.00 | 73 | 1015.3 |
| 20260506081530 | 4 | 192 | 1.6 | 6.4 | 0.00 | 0.10 | 0.00 | 76 | 1015.4 |
| 20260506073023 | 5 | 327 | 3.2 | 6.4 | 0.00 | 0.10 | 0.00 | 77 | 1015.7 |
| 20260506071525 | 5 | 311 | 3.2 | 6.4 | 0.00 | 0.10 | 0.00 | 80 | 1015.6 |
| 20260506061524 | 6 | 303 | 4.8 | 11.3 | 0.00 | 0.10 | 0.00 | 79 | 1015.5 |
| 20260506044526 | 5 | 298 | 9.7 | 19.3 | 0.03 | 0.10 | 0.10 | 82 | 1015.4 |
| 20260506043002 | 5 | 295 | 6.4 | 12.9 | 0.08 | 0.10 | 0.10 | 84 | 1015.1 |
| 20260506041504 | 5 | 309 | 9.7 | 17.7 | 0.10 | 0.10 | 0.10 | 85 | 1015.2 |
| 20260506040004 | 5 | 318 | 9.7 | 20.9 | 0.08 | 0.08 | 0.08 | 85 | 1014.8 |
| 20260506034518 | 5 | 302 | 11.3 | 25.7 | 0.08 | 0.08 | 0.08 | 84 | 1015.0 |
| 20260506033010 | 6 | 286 | 14.5 | 27.4 | 0.03 | 0.03 | 0.03 | 77 | 1014.3 |
| 20260506031518 | 7 | 331 | 11.3 | 32.2 | 0.00 | 0.00 | 0.00 | 74 | 1014.2 |
| 20260506030013 | 7 | 318 | 17.7 | 29.0 | 0.00 | 0.00 | 0.00 | 71 | 1014.1 |
| 20260506024510 | 8 | 327 | 11.3 | 22.5 | 0.00 | 0.00 | 0.00 | 67 | 1013.9 |
| 20260506023012 | 8 | 295 | 6.4 | 22.5 | 0.00 | 0.00 | 0.00 | 63 | 1013.6 |
| 20260506021512 | 8 | 281 | 0.0 | 3.2 | 0.00 | 0.00 | 0.00 | 63 | 1013.2 |
| 20260506020020 | 9 | 298 | 1.6 | 4.8 | 0.00 | 0.00 | 0.00 | 61 | 1012.8 |
| 20260506014504 | 10 | 260 | 1.6 | 4.8 | 0.00 | 0.00 | 0.00 | 61 | 1012.8 |
| 20260506013009 | 10 | 285 | 0.0 | 4.8 | 0.00 | 0.00 | 0.00 | 60 | 1012.5 |
| 20260506011510 | 10 | 313 | 4.8 | 14.5 | 0.00 | 0.00 | 0.00 | 57 | 1012.5 |
| 20260506010020 | 11 | 300 | 6.4 | 16.1 | 0.00 | 0.00 | 0.00 | 52 | 1012.7 |
| 20260506004521 | 11 | 218 | 6.4 | 14.5 | 0.00 | 0.00 | 0.00 | 55 | 1012.4 |
| 20260506003005 | 11 | 211 | 8.0 | 12.9 | 0.00 | 0.00 | 0.00 | 53 | 1012.4 |
| 20260506001505 | 12 | 195 | 4.8 | 14.5 | 0.00 | 0.00 | 0.00 | 51 | 1012.3 |
| 20260506000013 | 13 | 202 | 3.2 | 14.5 | 0.00 | 0.00 | 0.00 | 49 | 1012.3 |
| 20260505234517 | 13 | 94 | 12.9 | 24.1 | 0.00 | 0.00 | 0.00 | 49 | 1012.3 |
| 20260505233022 | 13 | 259 | 9.7 | 22.5 | 0.00 | 0.00 | 0.00 | 46 | 1012.2 |
| 20260505231504 | 13 | 184 | 4.8 | 16.1 | 0.00 | 0.00 | 0.00 | 48 | 1012.2 |
| 20260505230032 | 12 | 204 | 11.3 | 17.7 | 0.00 | 0.00 | 0.00 | 54 | 1012.2 |
| 20260505224515 | 11 | 294 | 4.8 | 11.3 | 0.00 | 0.00 | 0.00 | 59 | 1012.4 |
| 20260505223022 | 10 | 183 | 3.2 | 16.1 | 0.00 | 0.00 | 0.00 | 66 | 1013.0 |
| 20260505221523 | 11 | 144 | 11.3 | 30.6 | 0.00 | 0.00 | 0.00 | 57 | 1012.9 |
| 20260505220010 | 12 | 195 | 8.0 | 27.4 | 0.00 | 0.00 | 0.00 | 56 | 1013.0 |
| 20260505214519 | 13 | 248 | 9.7 | 24.1 | 0.00 | 0.00 | 0.00 | 51 | 1012.8 |
| 20260505213025 | 14 | 240 | 8.0 | 19.3 | 0.00 | 0.00 | 0.00 | 52 | 1012.8 |
| 20260505211522 | 14 | 335 | 9.7 | 20.9 | 0.00 | 0.00 | 0.00 | 54 | 1013.0 |
| 20260505210030 | 12 | 258 | 8.0 | 22.5 | 0.00 | 0.00 | 0.00 | 55 | 1013.0 |
| 20260505204512 | 13 | 306 | 9.7 | 17.7 | 0.00 | 0.00 | 0.00 | 56 | 1013.2 |
| 20260505203020 | 13 | 293 | 6.4 | 19.3 | 0.00 | 0.00 | 0.00 | 56 | 1013.4 |
| 20260505201521 | 12 | 314 | 6.4 | 17.7 | 0.00 | 0.00 | 0.00 | 60 | 1013.4 |
| 20260505200033 | 12 | 299 | 6.4 | 24.1 | 0.00 | 0.00 | 0.00 | 59 | 1013.2 |
| 20260505194526 | 12 | 125 | 11.3 | 19.3 | 0.00 | 0.00 | 0.00 | 62 | 1013.3 |